Regional Weather Roundup
Issued by NWS Cleveland, OH

Home | Current Version | Previous Version | Graphics & Text | Print | Product List | Glossary On
Versions: 1 2 3 4 5 6 7 8 9 10 11 12 13 14 15 16 17 18 19 20 21 22 23 24 25 26 27 28 29 30 31 32 33 34 35 36 37 38 39 40 41 42 43 44 45 46 47 48 49 50
000
ASUS41 KCLE 211512
RWRCLE
OHIO REGIONAL WEATHER ROUNDUP
NATIONAL WEATHER SERVICE WILMINGTON, OH
1000 AM EST TUE FEB 21 2017

NOTE: "FAIR" INDICATES FEW OR NO CLOUDS BELOW 12,000 FEET WITH NO
SIGNIFICANT WEATHER AND/OR OBSTRUCTIONS TO VISIBILITY.

OHZ001>008-015>018-024>027-034-035-043-044-211600-
   NORTHWEST OHIO

CITY           SKY/WX    TMP DP  RH WIND       PRES   REMARKS
DEFIANCE       FAIR      47  41  80 CALM      29.99R
FINDLAY        FAIR      56  42  59 S8        29.98S
TOLEDO EXPRESS FAIR      45  39  79 W3        29.97S
TOLEDO EXEC    FAIR      49  42  77 SW6       29.98S
LIMA           FAIR      56  44  64 S10       29.99S
$$

OHZ009>014-019>023-028>033-038-089-211600-
   NORTHEAST OHIO

CITY           SKY/WX    TMP DP  RH WIND       PRES   REMARKS
CLE-HOPKINS    CLOUDY    58  35  42 S13       30.02F
CLE-LAKEFRONT  FAIR      56  35  45 SE14      29.98F
CUY CO. ARPT   PTSUNNY   57  37  47 S16       30.01F
LORAIN-ELYRIA  FAIR      51  37  58 S9        29.99F
ASHTABULA      FAIR      52  34  50 S13       30.03F
AKRON-CANTON   PTSUNNY   57  36  45 S10       30.04F
WOOSTER        FAIR      52  38  58 SW7       30.03F
MANSFIELD      FAIR      56  39  53 S12       30.02S
YOUNGSTOWN     CLOUDY    52  33  48 SE10      30.05F
$$

OHZ042-051>053-060>062-070>072-077>081-211600-
  SOUTHWEST OHIO

CITY           SKY/WX    TMP DP  RH WIND       PRES   REMARKS
CINC-COVINGTON CLOUDY    61  46  57 S9        30.02F
CINC-LUNKEN    FAIR      52  46  80 CALM      30.04F
HAMILTON       FAIR      57  46  66 E5        30.04S
DAYTON         PTSUNNY   55  41  59 S10       30.03S
WRIGHT-PAT AFB FAIR      55  45  69 CALM      30.02F
DAYTON GENERAL FAIR      57  44  62 S7        30.02F
WILMINGTON     FAIR      59  45  59 SW13      30.03S
$$

OHZ036-037-039>041-045>050-054>059-063>069-073>076-082>088-211600-
  CENTRAL AND SOUTHEAST OHIO

CITY           SKY/WX    TMP DP  RH WIND       PRES   REMARKS
COLUMBUS       PTSUNNY   58  41  53 S7        30.04S
OSU AIRPORT    FAIR      55  43  63 S8        30.04S
BOLTON FIELD   SUNNY     55  43  62 S6        30.05R
RICKENBACK AFB FAIR      57  44  60 SW9       30.05R
NEWARK         FAIR      54  42  64 S5        30.05S
MARION         FAIR      55  40  56 S10       30.03R
LANCASTER      FAIR      62  43  49 SE3       30.05S
ZANESVILLE     FAIR      58  39  49 S7        30.06S
NEW PHILLY     FAIR      54  39  57 SE6       30.06R
$$



USA.gov is the U.S. government's official web portal to all federal, state and local government web resources and services.